#timestamp,LO_Frequency,Hit,StdDev 
1517439615.2,286047003.0,N
1517439635.1,286047001.5,N
1517439636.0,286047001.5,N
1517439655.8,286047002.2,N
1517439675.6,286046997.7,N
1517439695.5,286047003.6,N
1517439715.3,286047008.7,Y
1517439735.2,286047001.5,P
1517439755.9,286046994.6,P
1517439775.7,286046991.6,N
1517439795.6,286046997.3,N
1517439815.4,286046996.3,N
1517439835.2,286046991.3,N
1517439855.1,286046993.9,N
1517439856.0,286046993.9,N
1517439875.8,286046994.2,N
1517439895.7,286046993.7,N
1517439915.5,286046995.5,N
1517439935.3,286047000.3,N
1517439955.2,286046997.7,N
1517439975.0,286047002.3,N
1517439975.9,286047002.3,N
1517439995.7,286047008.4,N
1517440015.6,286047012.3,N
1517440035.4,286047010.6,N
1517440055.3,286046999.9,N
1517440075.1,286047006.3,N
1517440076.0,286047006.3,N
1517440095.8,286047005.4,N
1517440115.7,286047005.2,N
1517440135.5,286047004.5,N
1517440155.3,286047002.4,N
1517440175.2,286047002.2,N
1517440225.1,286046997.8,E
1517440235.9,286047002.0,N
1517440255.7,286047008.5,P
1517440275.5,286047004.7,N
1517440295.4,286047001.9,N
1517440315.2,286046998.4,N
1517440335.1,286046998.8,N
1517440336.0,286046998.8,N
1517440355.8,286047003.9,N
1517440375.6,286047005.8,N
1517440395.5,286047005.4,N
1517440415.3,286047004.0,N
1517440435.2,286047009.2,N
1517440455.9,286047001.3,N
1517440475.7,286047002.9,N
1517440495.6,286047001.7,N
1517440515.4,286047007.6,N
1517440535.2,286047004.0,N
1517440555.1,286047003.0,N
1517440556.0,286047003.0,N
1517440575.8,286047003.3,N
1517440595.7,286047010.8,Y
1517440615.5,286047003.9,P
1517440635.3,286047001.4,P
1517440655.2,286047000.0,N
1517440675.0,286046992.6,Y
1517440675.9,286046992.6,P
1517440695.7,286046993.7,N
1517440715.6,286046996.6,N
1517440735.4,286046996.7,N
1517440755.3,286046994.6,N
1517440775.1,286046994.6,N
1517440776.0,286046994.6,N
1517440795.8,286046998.1,N
1517440815.7,286046998.9,N
1517440835.5,286046993.9,N
1517440855.3,286046997.5,N
1517440875.2,286046993.5,N
1517440895.0,286046996.4,N
1517440895.9,286046996.4,N
1517440915.8,286046992.8,N
1517440935.6,286046996.2,N
1517440955.4,286046997.2,N
1517440975.3,286046998.1,N
1517440995.1,286046997.3,N
1517441015.9,286046998.7,N
1517441035.7,286046994.7,N
1517441055.5,286047000.6,N
1517441075.4,286046998.8,N
1517441095.2,286047004.3,N
1517441115.0,286046998.2,N
1517441115.9,286046998.2,N
1517441135.8,286046998.2,N
1517441155.6,286046998.5,N
1517441175.5,286046997.9,N
1517441195.3,286046996.3,N
1517441215.1,286046991.0,Y
1517441235.9,286047002.5,P
1517441255.7,286047005.0,N
1517441275.5,286047010.4,P
1517441295.4,286047006.5,N
1517441315.2,286047010.0,N
1517441335.1,286047001.8,N
1517441336.0,286047001.8,N
1517441355.8,286047005.7,N
1517441375.6,286047008.3,N
1517441395.5,286047006.0,N
1517441415.3,286047002.1,N
1517441435.1,286047000.2,N
1517441455.9,286047001.9,N
1517441475.7,286047007.3,N
1517441495.5,286046998.5,N
1517441515.4,286046997.2,N
1517441535.2,286047005.8,N
1517441555.1,286047003.5,N
1517441556.0,286047003.5,N
1517441575.8,286047002.5,N
1517441595.6,286047004.8,N
1517441615.5,286047002.9,N
1517441635.3,286047005.4,N
1517441655.1,286047007.5,N
1517441675.9,286047010.2,N
1517441695.7,286047015.5,Y
1517441715.6,286047005.2,P
1517441735.4,286047000.8,N
1517441755.2,286046998.7,N
1517441775.1,286046999.2,N
1517441776.0,286046999.2,N
1517441795.8,286046995.5,N
1517441815.6,286046994.9,N
1517441835.5,286046995.1,N
1517441855.3,286046999.1,N
1517441875.2,286046997.7,N
1517441895.9,286046995.3,N
1517441915.7,286046996.0,N
1517441935.6,286046994.5,N
1517441955.4,286046994.3,N
1517441975.2,286046992.8,N
1517441995.1,286046991.5,N
1517441996.0,286046991.5,N
1517442015.8,286046994.6,N
1517442035.7,286046996.9,N
1517442055.5,286047000.4,N
1517442075.3,286046997.3,N
1517442095.2,286046995.4,N
1517442115.0,286047002.6,N
1517442115.9,286047002.6,N
1517442135.7,286047001.5,N
1517442155.6,286047003.4,N
1517442175.4,286047003.9,N
1517442195.3,286047007.0,N
1517442215.1,286047008.6,N
1517442216.0,286047008.6,N
1517442235.8,286047009.3,N
1517442255.7,286047010.8,N
1517442275.5,286047011.7,N
1517442295.3,286047012.7,N
1517442315.2,286047009.5,N
1517442335.0,286047009.0,N
1517442335.9,286047009.0,N
1517442355.8,286047012.6,N
1517442375.6,286047011.6,N
1517442395.4,286047010.8,N
1517442415.3,286047012.4,N
1517442435.1,286047014.2,N
1517442455.8,286047018.6,N
1517442475.7,286047016.4,N
1517442495.5,286047018.6,N
1517442515.4,286047019.9,N
1517442535.2,286047016.3,N
1517442555.0,286047016.8,N
1517442555.9,286047016.8,N
1517442575.8,286047019.8,Y
1517442595.6,286047007.8,P
1517442615.4,286047009.7,P
1517442635.3,286047009.9,P
1517442655.1,286047004.7,Y
1517442675.9,286047002.7,P
1517442695.7,286047002.7,N
1517442715.5,286047001.6,N
1517442735.4,286046999.1,N
1517442755.2,286046997.1,N
1517442775.0,286046998.7,N
1517442775.9,286046998.7,N
1517442795.8,286046998.8,N
1517442815.6,286046997.2,N
1517442835.5,286046999.2,N
1517442855.3,286047004.3,N
1517442875.1,286046995.2,N
1517442895.9,286046997.3,N
1517442915.7,286047001.1,N
1517442935.5,286046998.1,N
1517442955.4,286046991.8,N
1517442975.2,286046990.9,N
1517442995.1,286046998.0,N
1517442996.0,286046998.0,N
1517443015.8,286046999.4,N
1517443035.6,286047001.0,N
1517443055.5,286046999.0,N
1517443075.3,286046996.7,N
1517443095.1,286046998.8,N
1517443115.9,286046993.7,N
1517443135.7,286046998.3,N
1517443155.6,286047001.1,N
1517443175.4,286046997.4,N
1517443195.2,286046995.7,N
